Tracking 25693 objects as of 30-Jun-2022
HD Live streaming from Space Station
objects crossing your sky now

STARLINK-2693

Track STARLINK-2693 now!
10-day predictions
STARLINK-2693 is classified as:


NORAD ID: 48461
Int'l Code: 2021-040AK
Perigee: 552.7 km
Apogee: 556.1 km
Inclination: 53.1 °
Period: 95.6 minutes
Semi major axis: 6925 km
RCS: Unknown
Launch date: May 9, 2021
Source: United States (US)
Launch site: AIR FORCE EASTERN TEST RANGE (AFETR)
aabbcc
Your satellite tracking list
Your tracking list is empty




NASA's NSSDC Master Catalog

Two Line Element Set (TLE):
1 48461U 21040AK  22181.23354520  .00001645  00000-0  12934-3 0  9996
2 48461  53.0560 120.0845 0002474  59.7783 300.3451 15.06393642 63329
Source of the keplerian elements: AFSPC